Flag for Germany Weather past 2 weeks in Wismar, Mecklenburg-Western Pomerania, Germany

Now
41 °F

Passing clouds.


Feels Like: 39 °F
Forecast: 45 / 67 °F
Wind: 3 mph from East

Location: Schwerin


UV Index: 3 (Moderate)

Visibility: 8 mi


Pressure: 30.07 "Hg

Humidity: 96%

Dew point: 40 °F

Location of WismarLocation

Historic Weather in Wismar

°F

Wismar temperature yesterday

Maximum temperature yesterday: 49 °F (at 4:00 PM)
Minimum temperature yesterday: 40 °F (at 7:00 AM)
Average temperature yesterday: 45 °F

Past Weeks' High & Low Weather Summary

 TemperatureHumidityPressure
High65 °F (Apr 7, 6:00 PM)100% (Apr 6, 3:00 AM)30.47 "Hg (Apr 6, 3:00 AM)
Low35 °F (Apr 16, 6:00 AM)35% (Apr 17, 5:00 PM)29.65 "Hg (Apr 14, 7:00 AM)
Average48 °F78%30.00 "Hg
* Reported Apr 4 2:00 AM — Apr 19 2:00 AM, Wismar, Weather by CustomWeather, © 2014

Note: Actual official high and low records may vary slightly from our data, if they occured in-between our weather recording intervals... More about our weather records

Advertising

Historic Weather Conditions — Data for Previous 24 hours

 ConditionsComfort  
Time TempWeatherWind HumidityBarometerVisibility
2:00 AM
Apr 19
41 °FPassing clouds.3 mph96%30.07 "Hg7 mi
1:00 AM41 °FPassing clouds.3 mph94%30.04 "Hg9 mi
12:00 AM41 °FPassing clouds.2 mph93%30.03 "Hg13 mi
10:00 PM
Apr 18
43 °FOvercast.2 mph85%29.97 "Hg22 mi
9:00 PM43 °FPassing clouds.2 mph85%29.95 "Hg13 mi
8:00 PM44 °FOvercast.3 mph77%29.92 "Hg22 mi
7:00 PM47 °FOvercast.5 mph76%29.90 "Hg17 mi
6:00 PM47 °FOvercast.6 mph79%29.87 "Hg19 mi
5:00 PM49 °FOvercast.6 mph72%29.85 "Hg19 mi
4:00 PM49 °FOvercast.6 mph65%29.84 "Hg25 mi
3:00 PM49 °FOvercast.6 mph65%29.83 "Hg22 mi
2:00 PM48 °FOvercast.7 mph70%29.81 "Hg22 mi
1:00 PM47 °FRain. Overcast.5 mph78%29.80 "Hg19 mi
12:00 PM47 °FOvercast.6 mph77%29.79 "Hg25 mi
11:00 AM46 °FOvercast.6 mph75%29.77 "Hg28 mi
10:00 AM46 °FOvercast.6 mph75%29.76 "Hg25 mi
9:00 AM44 °FOvercast.5 mph82%29.75 "Hg28 mi
8:00 AM43 °FScattered clouds.6 mph92%29.74 "Hg19 mi
7:00 AM40 °FPassing clouds.5 mph94%29.73 "Hg16 mi
6:00 AM42 °FOvercast.7 mph90%29.72 "Hg17 mi
5:00 AM43 °FOvercast.6 mph92%29.73 "Hg12 mi
4:00 AM43 °FPassing clouds.6 mph94%29.74 "Hg10 mi
3:00 AM44 °FLight rain. Overcast.6 mph94%29.75 "Hg11 mi
2:00 AM45 °FLight freezing rain. Overcast.5 mph93%29.75 "Hg6 mi
Weather by CustomWeather, © 2014

See weather overview